AUA502 LPFR-LEMH

Flight info

Callsign AUA502
Flight time 1h 35m
Altitude 38000
Route NIRAK DCT OSLEP N747 YES M985 ASTRO Z224 LASPO M871 ORVUS DCT OLUTO DCT TONIS
Aircraft A320/M-SDE3FGHIRWY/LB1

Departure

Time 2026-04-14 09:11
Airport Faro - Gago Coutinho International Airport (LPFR)

Arrival

Time 2026-04-14 10:46
Airport Menorca Airport (LEMH)
Time Latitude Longitude Altitude Speed Heading
2026-04-14 08:51 37.01918 -7.96847 20 ft 0 kts 10°
2026-04-14 09:03 37.01916 -7.96847 20 ft 3 kts
2026-04-14 09:03 37.01890 -7.96851 23 ft 4 kts
2026-04-14 09:03 37.01863 -7.96854 21 ft 4 kts 17°
2026-04-14 09:03 37.01842 -7.96869 23 ft 4 kts 52°
2026-04-14 09:04 37.01837 -7.96894 22 ft 4 kts 95°
2026-04-14 09:04 37.01843 -7.96927 23 ft 4 kts 104°
2026-04-14 09:04 37.01845 -7.96941 22 ft 0 kts 100°
2026-04-14 09:06 37.01844 -7.96936 21 ft 4 kts 104°
2026-04-14 09:06 37.01809 -7.96894 22 ft 7 kts 163°
2026-04-14 09:06 37.01764 -7.96896 20 ft 6 kts 187°
2026-04-14 09:07 37.01723 -7.96905 20 ft 6 kts 189°
2026-04-14 09:07 37.01673 -7.96880 21 ft 11 kts 124°
2026-04-14 09:07 37.01651 -7.96761 20 ft 15 kts 101°
2026-04-14 09:07 37.01632 -7.96639 20 ft 14 kts 99°
2026-04-14 09:08 37.01618 -7.96524 20 ft 13 kts 99°
2026-04-14 09:08 37.01603 -7.96417 20 ft 12 kts 100°
2026-04-14 09:08 37.01588 -7.96317 20 ft 11 kts 100°
2026-04-14 09:08 37.01574 -7.96223 20 ft 11 kts 100°
2026-04-14 09:09 37.01561 -7.96135 20 ft 10 kts 100°
2026-04-14 09:09 37.01549 -7.96049 20 ft 10 kts 100°
2026-04-14 09:09 37.01537 -7.95968 19 ft 9 kts 99°
2026-04-14 09:09 37.01525 -7.95887 21 ft 9 kts 107°
2026-04-14 09:10 37.01480 -7.95843 18 ft 8 kts 171°
2026-04-14 09:10 37.01411 -7.95850 20 ft 15 kts 186°
2026-04-14 09:10 37.01353 -7.95955 21 ft 24 kts 280°
2026-04-14 09:10 37.01418 -7.96398 22 ft 87 kts 279°
2026-04-14 09:11 37.01559 -7.97402 25 ft 145 kts 280°
2026-04-14 09:11 37.01688 -7.98255 387 ft 146 kts 283°
2026-04-14 09:11 37.01879 -7.99508 1120 ft 147 kts 283°
2026-04-14 09:11 37.02069 -8.00812 1677 ft 162 kts 284°
2026-04-14 09:12 37.02288 -8.02289 2072 ft 184 kts 284°
2026-04-14 09:12 37.02534 -8.03959 2467 ft 207 kts 283°
2026-04-14 09:12 37.02797 -8.05775 3238 ft 214 kts 283°
2026-04-14 09:12 37.03026 -8.07644 4002 ft 227 kts 273°
2026-04-14 09:13 37.02539 -8.09618 4455 ft 256 kts 234°
2026-04-14 09:13 37.01062 -8.10964 5124 ft 274 kts 200°
2026-04-14 09:13 36.99178 -8.11392 6031 ft 279 kts 178°
2026-04-14 09:13 36.97291 -8.10825 6946 ft 283 kts 151°
2026-04-14 09:14 36.95808 -8.09281 7795 ft 284 kts 123°
2026-04-14 09:14 36.95010 -8.07012 8647 ft 284 kts 96°
2026-04-14 09:14 36.95081 -8.04573 9510 ft 283 kts 73°
2026-04-14 09:14 36.95547 -8.02169 10398 ft 286 kts 72°
2026-04-14 09:15 36.96037 -7.99701 10806 ft 308 kts 72°
2026-04-14 09:15 36.96574 -7.96998 11098 ft 332 kts 72°
2026-04-14 09:15 36.97145 -7.94076 11506 ft 349 kts 73°
2026-04-14 09:15 36.97717 -7.91090 12193 ft 356 kts 73°
2026-04-14 09:16 36.98289 -7.88056 12936 ft 361 kts 73°
2026-04-14 09:16 36.98865 -7.84984 13690 ft 365 kts 73°
2026-04-14 09:16 36.99451 -7.81871 14410 ft 370 kts 72°
2026-04-14 09:16 37.00045 -7.78722 15078 ft 374 kts 72°
2026-04-14 09:17 37.00646 -7.75534 15722 ft 378 kts 72°
2026-04-14 09:17 37.01245 -7.72358 16361 ft 382 kts 72°
2026-04-14 09:17 37.01857 -7.69105 16989 ft 387 kts 72°
2026-04-14 09:17 37.02477 -7.65808 17615 ft 391 kts 72°
2026-04-14 09:18 37.03104 -7.62483 18234 ft 395 kts 72°
2026-04-14 09:18 37.03738 -7.59119 18807 ft 399 kts 72°
2026-04-14 09:18 37.04374 -7.55723 19334 ft 403 kts 72°
2026-04-14 09:18 37.05014 -7.52297 19858 ft 406 kts 73°
2026-04-14 09:19 37.05659 -7.48836 20371 ft 410 kts 73°
2026-04-14 09:19 37.06310 -7.45346 20877 ft 414 kts 73°
2026-04-14 09:19 37.06966 -7.41824 21367 ft 417 kts 73°
2026-04-14 09:19 37.07818 -7.38358 21841 ft 417 kts 64°
2026-04-14 09:20 37.09102 -7.35113 22319 ft 416 kts 56°
2026-04-14 09:20 37.10576 -7.31973 22786 ft 420 kts 56°
2026-04-14 09:20 37.12059 -7.28807 23256 ft 423 kts 56°
2026-04-14 09:20 37.13553 -7.25610 23718 ft 427 kts 56°
2026-04-14 09:21 37.15060 -7.22380 24117 ft 430 kts 56°
2026-04-14 09:21 37.16397 -7.18999 24537 ft 437 kts 64°
2026-04-14 09:21 37.17293 -7.15338 24956 ft 443 kts 72°
2026-04-14 09:21 37.18003 -7.11574 25349 ft 445 kts 72°
2026-04-14 09:22 37.18715 -7.07785 25738 ft 447 kts 72°
2026-04-14 09:22 37.19432 -7.03982 26124 ft 449 kts 72°
2026-04-14 09:22 37.20155 -7.00165 26507 ft 452 kts 72°
2026-04-14 09:22 37.20882 -6.96319 26878 ft 454 kts 72°
2026-04-14 09:23 37.21610 -6.92456 27245 ft 456 kts 72°
2026-04-14 09:23 37.22340 -6.88573 27610 ft 458 kts 72°
2026-04-14 09:23 37.23072 -6.84668 27957 ft 461 kts 72°
2026-04-14 09:23 37.23801 -6.80748 28325 ft 462 kts 71°
2026-04-14 09:24 37.24530 -6.76813 28680 ft 464 kts 71°
2026-04-14 09:24 37.25263 -6.72856 29008 ft 466 kts 71°
2026-04-14 09:24 37.25999 -6.68881 29324 ft 469 kts 71°
2026-04-14 09:24 37.26739 -6.64887 29637 ft 471 kts 71°
2026-04-14 09:25 37.27482 -6.60874 29944 ft 473 kts 71°
2026-04-14 09:25 37.28223 -6.56856 30378 ft 472 kts 71°
2026-04-14 09:25 37.28957 -6.52851 30764 ft 471 kts 71°
2026-04-14 09:25 37.29689 -6.48851 31140 ft 469 kts 71°
2026-04-14 09:26 37.30418 -6.44863 31559 ft 467 kts 71°
2026-04-14 09:26 37.31141 -6.40890 31985 ft 465 kts 71°
2026-04-14 09:26 37.31860 -6.36940 32405 ft 463 kts 71°
2026-04-14 09:26 37.32578 -6.33003 32818 ft 461 kts 71°
2026-04-14 09:27 37.33290 -6.29086 33219 ft 460 kts 70°
2026-04-14 09:27 37.34002 -6.25175 33633 ft 458 kts 70°
2026-04-14 09:27 37.34707 -6.21280 34037 ft 456 kts 70°
2026-04-14 09:27 37.35409 -6.17392 34249 ft 456 kts 70°
2026-04-14 09:28 37.36809 -6.09636 34272 ft 454 kts 70°
2026-04-14 09:28 37.38199 -6.01897 34285 ft 453 kts 70°
2026-04-14 09:29 37.39579 -5.94166 34274 ft 453 kts 70°
2026-04-14 09:29 37.40953 -5.86430 34274 ft 453 kts 70°
2026-04-14 09:30 37.42316 -5.78734 34277 ft 453 kts 70°
2026-04-14 09:30 37.44442 -5.71435 34267 ft 442 kts 59°
2026-04-14 09:31 37.46929 -5.64377 34270 ft 440 kts 58°
2026-04-14 09:31 37.49398 -5.57325 34263 ft 440 kts 59°
2026-04-14 09:32 37.51858 -5.50261 34260 ft 440 kts 59°
2026-04-14 09:33 37.55537 -5.39668 34261 ft 440 kts 59°
2026-04-14 09:33 37.57988 -5.32598 34289 ft 440 kts 59°
2026-04-14 09:34 37.60421 -5.25542 34258 ft 438 kts 59°
2026-04-14 09:34 37.62853 -5.18501 34262 ft 438 kts 59°
2026-04-14 09:35 37.65289 -5.11459 34269 ft 438 kts 59°
2026-04-14 09:35 37.67720 -5.04410 34269 ft 438 kts 59°
2026-04-14 09:36 37.70145 -4.97355 34268 ft 438 kts 59°
2026-04-14 09:36 37.72556 -4.90304 34268 ft 435 kts 59°
2026-04-14 09:37 37.74942 -4.83305 34274 ft 433 kts 58°
2026-04-14 09:37 37.77328 -4.76314 34274 ft 433 kts 59°
2026-04-14 09:38 37.79691 -4.69358 34271 ft 433 kts 59°
2026-04-14 09:38 37.82061 -4.62352 34253 ft 433 kts 59°
2026-04-14 09:39 37.84429 -4.55342 34265 ft 433 kts 59°
2026-04-14 09:39 37.86776 -4.48356 34250 ft 431 kts 59°
2026-04-14 09:40 37.89117 -4.41380 34248 ft 430 kts 59°
2026-04-14 09:40 37.91466 -4.34404 34249 ft 431 kts 59°
2026-04-14 09:41 37.93804 -4.27424 34243 ft 431 kts 59°
2026-04-14 09:41 37.96132 -4.20428 34248 ft 431 kts 59°
2026-04-14 09:42 37.98459 -4.13432 34239 ft 431 kts 59°
2026-04-14 09:42 38.00790 -4.06439 34349 ft 432 kts 59°
2026-04-14 09:42 38.01962 -4.02909 34497 ft 436 kts 59°
2026-04-14 09:43 38.03143 -3.99345 34622 ft 440 kts 59°
2026-04-14 09:43 38.04312 -3.95805 34832 ft 442 kts 59°
2026-04-14 09:43 38.05516 -3.92158 35127 ft 442 kts 59°
2026-04-14 09:43 38.06686 -3.88613 35429 ft 441 kts 59°
2026-04-14 09:44 38.07882 -3.84979 35730 ft 440 kts 59°
2026-04-14 09:44 38.09042 -3.81440 36064 ft 439 kts 59°
2026-04-14 09:44 38.10212 -3.77865 36404 ft 437 kts 58°
2026-04-14 09:44 38.11373 -3.74313 36717 ft 435 kts 58°
2026-04-14 09:45 38.12536 -3.70767 37005 ft 434 kts 58°
2026-04-14 09:45 38.13695 -3.67232 37272 ft 433 kts 58°
2026-04-14 09:45 38.14842 -3.63689 37518 ft 435 kts 60°
2026-04-14 09:45 38.15693 -3.59954 37763 ft 446 kts 68°
2026-04-14 09:46 38.16346 -3.56097 38007 ft 446 kts 68°
2026-04-14 09:46 38.16996 -3.52241 38184 ft 446 kts 68°
2026-04-14 09:46 38.17644 -3.48390 38242 ft 446 kts 68°
2026-04-14 09:47 38.18938 -3.40674 38237 ft 446 kts 68°
2026-04-14 09:47 38.20219 -3.32973 38240 ft 445 kts 68°
2026-04-14 09:48 38.21496 -3.25277 38235 ft 445 kts 68°
2026-04-14 09:48 38.22772 -3.17579 38248 ft 445 kts 68°
2026-04-14 09:49 38.24047 -3.09866 38247 ft 445 kts 68°
2026-04-14 09:49 38.25324 -3.02153 38280 ft 446 kts 68°
2026-04-14 09:50 38.26588 -2.94451 38270 ft 444 kts 68°
2026-04-14 09:50 38.27838 -2.86755 38258 ft 443 kts 68°
2026-04-14 09:51 38.29082 -2.79070 38263 ft 443 kts 68°
2026-04-14 09:51 38.30328 -2.71385 38243 ft 443 kts 68°
2026-04-14 09:52 38.31562 -2.63710 38250 ft 442 kts 68°
2026-04-14 09:52 38.32779 -2.56068 38233 ft 440 kts 68°
2026-04-14 09:53 38.33996 -2.48434 38222 ft 440 kts 68°
2026-04-14 09:53 38.35217 -2.40784 38216 ft 440 kts 68°
2026-04-14 09:53 38.36058 -2.37088 38221 ft 429 kts 59°
2026-04-14 09:54 38.37306 -2.33700 38225 ft 418 kts 51°
2026-04-14 09:54 38.40680 -2.27845 38246 ft 407 kts 44°
2026-04-14 09:55 38.44172 -2.22206 38197 ft 405 kts 44°
2026-04-14 09:55 38.47633 -2.16588 38195 ft 406 kts 44°
2026-04-14 09:56 38.50551 -2.11836 38186 ft 406 kts 44°
2026-04-14 09:56 38.54033 -2.06158 38191 ft 406 kts 44°
2026-04-14 09:57 38.57523 -2.00472 38189 ft 407 kts 44°
2026-04-14 09:57 38.61010 -1.94778 38191 ft 407 kts 44°
2026-04-14 09:58 38.64494 -1.89073 38205 ft 406 kts 44°
2026-04-14 09:58 38.67961 -1.83389 38199 ft 405 kts 44°
2026-04-14 09:59 38.71424 -1.77702 38195 ft 405 kts 44°
2026-04-14 09:59 38.74885 -1.72011 38203 ft 405 kts 44°
2026-04-14 10:00 38.78342 -1.66312 38190 ft 405 kts 44°
2026-04-14 10:00 38.81799 -1.60616 38194 ft 405 kts 44°
2026-04-14 10:01 38.85249 -1.54904 38197 ft 405 kts 45°
2026-04-14 10:01 38.88699 -1.49178 38159 ft 405 kts 44°
2026-04-14 10:02 38.92146 -1.43457 38148 ft 406 kts 45°
2026-04-14 10:02 38.95600 -1.37718 38150 ft 407 kts 45°
2026-04-14 10:03 38.99056 -1.31955 38141 ft 408 kts 45°
2026-04-14 10:03 39.02414 -1.26109 38147 ft 415 kts 51°
2026-04-14 10:04 39.04982 -1.19304 38143 ft 421 kts 56°
2026-04-14 10:04 39.07444 -1.12511 38173 ft 424 kts 56°
2026-04-14 10:05 39.09937 -1.05621 38117 ft 426 kts 57°
2026-04-14 10:05 39.12432 -0.98696 38128 ft 427 kts 57°
2026-04-14 10:06 39.14935 -0.91754 38137 ft 427 kts 57°
2026-04-14 10:06 39.17431 -0.84808 38127 ft 428 kts 57°
2026-04-14 10:07 39.19925 -0.77841 38137 ft 428 kts 57°
2026-04-14 10:07 39.22424 -0.70861 38121 ft 430 kts 57°
2026-04-14 10:08 39.24920 -0.63847 38107 ft 431 kts 57°
2026-04-14 10:08 39.27376 -0.56777 38101 ft 436 kts 62°
2026-04-14 10:08 39.28209 -0.52960 38102 ft 447 kts 71°
2026-04-14 10:09 39.28562 -0.48926 38109 ft 455 kts 77°
2026-04-14 10:09 39.28989 -0.40765 38112 ft 456 kts 77°
2026-04-14 10:10 39.29418 -0.32593 38110 ft 456 kts 77°
2026-04-14 10:10 39.29854 -0.24420 38121 ft 457 kts 77°
2026-04-14 10:11 39.30281 -0.16236 38130 ft 457 kts 77°
2026-04-14 10:11 39.30691 -0.08044 38126 ft 457 kts 77°
2026-04-14 10:12 39.31095 0.00145 38179 ft 457 kts 78°
2026-04-14 10:12 39.31508 0.08341 38126 ft 457 kts 78°
2026-04-14 10:13 39.31911 0.16527 38127 ft 457 kts 78°
2026-04-14 10:13 39.32305 0.24727 38129 ft 458 kts 78°
2026-04-14 10:14 39.32692 0.32935 38133 ft 458 kts 78°
2026-04-14 10:14 39.33073 0.41154 38163 ft 458 kts 78°
2026-04-14 10:15 39.34129 0.49100 38142 ft 450 kts 71°
2026-04-14 10:15 39.35417 0.57029 38137 ft 451 kts 70°
2026-04-14 10:16 39.36695 0.64969 38147 ft 452 kts 71°
2026-04-14 10:16 39.37968 0.72915 38137 ft 452 kts 71°
2026-04-14 10:17 39.39235 0.80874 38127 ft 451 kts 72°
2026-04-14 10:17 39.40495 0.88828 38117 ft 451 kts 72°
2026-04-14 10:18 39.42374 1.00770 38118 ft 452 kts 72°
2026-04-14 10:18 39.43636 1.08752 38120 ft 453 kts 72°
2026-04-14 10:19 39.44892 1.16732 38154 ft 453 kts 72°
2026-04-14 10:19 39.46127 1.24735 38138 ft 454 kts 72°
2026-04-14 10:20 39.47358 1.32745 38131 ft 454 kts 72°
2026-04-14 10:20 39.48597 1.40755 38125 ft 454 kts 72°
2026-04-14 10:21 39.49825 1.48775 38127 ft 454 kts 72°
2026-04-14 10:21 39.51042 1.56804 38144 ft 455 kts 72°
2026-04-14 10:22 39.52254 1.64790 38131 ft 455 kts 72°
2026-04-14 10:22 39.53469 1.72851 38116 ft 456 kts 73°
2026-04-14 10:23 39.54682 1.80919 38115 ft 456 kts 73°
2026-04-14 10:23 39.55891 1.88997 38114 ft 457 kts 73°
2026-04-14 10:24 39.57091 1.97082 38124 ft 457 kts 73°
2026-04-14 10:24 39.58292 2.05190 38097 ft 458 kts 73°
2026-04-14 10:25 39.59489 2.13315 38096 ft 459 kts 73°
2026-04-14 10:25 39.60088 2.17405 37843 ft 453 kts 73°
2026-04-14 10:25 39.60661 2.21347 37578 ft 449 kts 73°
2026-04-14 10:26 39.61235 2.25312 37316 ft 447 kts 73°
2026-04-14 10:26 39.61809 2.29270 37073 ft 446 kts 73°
2026-04-14 10:26 39.62392 2.33276 36811 ft 446 kts 73°
2026-04-14 10:26 39.62961 2.37181 36559 ft 446 kts 73°
2026-04-14 10:27 39.63535 2.41134 36310 ft 446 kts 73°
2026-04-14 10:27 39.64105 2.45088 36033 ft 446 kts 73°
2026-04-14 10:27 39.64686 2.49109 35171 ft 450 kts 73°
2026-04-14 10:27 39.65257 2.53070 34318 ft 453 kts 73°
2026-04-14 10:28 39.65834 2.57103 33275 ft 458 kts 73°
2026-04-14 10:28 39.66415 2.61176 32255 ft 460 kts 73°
2026-04-14 10:28 39.67033 2.65242 31298 ft 460 kts 72°
2026-04-14 10:28 39.67719 2.69314 30347 ft 461 kts 72°
2026-04-14 10:29 39.68440 2.73372 29113 ft 463 kts 71°
2026-04-14 10:29 39.69181 2.77458 27761 ft 468 kts 72°
2026-04-14 10:29 39.69924 2.81584 26626 ft 469 kts 72°
2026-04-14 10:29 39.70653 2.85711 25556 ft 469 kts 72°
2026-04-14 10:30 39.71362 2.89820 24720 ft 463 kts 72°
2026-04-14 10:30 39.72054 2.93881 23895 ft 458 kts 73°
2026-04-14 10:30 39.72734 2.97909 23000 ft 454 kts 73°
2026-04-14 10:30 39.73403 3.01881 22237 ft 448 kts 73°
2026-04-14 10:31 39.74064 3.05819 21510 ft 443 kts 73°
2026-04-14 10:31 39.74719 3.09706 20768 ft 438 kts 75°
2026-04-14 10:31 39.75368 3.13550 20074 ft 433 kts 75°
2026-04-14 10:31 39.76009 3.17345 19414 ft 428 kts 76°
2026-04-14 10:32 39.76643 3.21105 18782 ft 423 kts 77°
2026-04-14 10:32 39.77267 3.24825 18135 ft 418 kts 77°
2026-04-14 10:32 39.77724 3.28523 17532 ft 411 kts 83°
2026-04-14 10:32 39.78076 3.32179 16961 ft 404 kts 83°
2026-04-14 10:33 39.78422 3.35782 16406 ft 398 kts 83°
2026-04-14 10:33 39.78763 3.39326 15844 ft 393 kts 83°
2026-04-14 10:33 39.79101 3.42837 15274 ft 389 kts 83°
2026-04-14 10:33 39.79435 3.46314 14683 ft 386 kts 83°
2026-04-14 10:34 39.80090 3.53202 13437 ft 382 kts 84°
2026-04-14 10:34 39.80410 3.56607 12803 ft 378 kts 83°
2026-04-14 10:34 39.80728 3.59990 12155 ft 375 kts 83°
2026-04-14 10:35 39.81041 3.63337 11495 ft 372 kts 83°
2026-04-14 10:35 39.81350 3.66663 10953 ft 367 kts 82°
2026-04-14 10:35 39.81643 3.69836 10780 ft 338 kts 82°
2026-04-14 10:35 39.81910 3.72764 10546 ft 315 kts 82°
2026-04-14 10:36 39.82162 3.75496 10305 ft 294 kts 82°
2026-04-14 10:36 39.82403 3.78088 10066 ft 285 kts 81°
2026-04-14 10:36 39.82637 3.80614 9928 ft 280 kts 81°
2026-04-14 10:36 39.82870 3.83126 9796 ft 280 kts 81°
2026-04-14 10:37 39.83102 3.85634 9666 ft 280 kts 81°
2026-04-14 10:37 39.83330 3.88143 9534 ft 279 kts 83°
2026-04-14 10:37 39.83163 3.90651 9376 ft 281 kts 106°
2026-04-14 10:37 39.82213 3.92895 8762 ft 289 kts 134°
2026-04-14 10:38 39.80609 3.94354 8549 ft 279 kts 158°
2026-04-14 10:38 39.78795 3.95204 8184 ft 276 kts 160°
2026-04-14 10:38 39.77030 3.96183 7809 ft 275 kts 155°
2026-04-14 10:38 39.75347 3.97347 7435 ft 273 kts 150°
2026-04-14 10:39 39.73758 3.98685 7066 ft 272 kts 144°
2026-04-14 10:39 39.72275 4.00199 6698 ft 270 kts 140°
2026-04-14 10:39 39.71355 4.01285 6451 ft 269 kts 136°
2026-04-14 10:39 39.70064 4.03038 6053 ft 268 kts 131°
2026-04-14 10:40 39.68897 4.04910 5669 ft 266 kts 127°
2026-04-14 10:40 39.67861 4.06894 5268 ft 265 kts 122°
2026-04-14 10:40 39.66973 4.08976 4867 ft 264 kts 117°
2026-04-14 10:40 39.66212 4.11196 4121 ft 275 kts 112°
2026-04-14 10:41 39.65582 4.13566 3361 ft 278 kts 107°
2026-04-14 10:41 39.65319 4.16008 2662 ft 273 kts 81°
2026-04-14 10:41 39.66107 4.18102 2393 ft 250 kts 42°
2026-04-14 10:41 39.67556 4.19006 2267 ft 225 kts
2026-04-14 10:42 39.69032 4.18630 2177 ft 212 kts 340°
2026-04-14 10:42 39.70454 4.18452 2082 ft 205 kts 11°
2026-04-14 10:42 39.71783 4.18896 2013 ft 188 kts
2026-04-14 10:42 39.72999 4.19154 1987 ft 165 kts
2026-04-14 10:43 39.74065 4.19368 2006 ft 149 kts
2026-04-14 10:43 39.75034 4.19566 2009 ft 136 kts
2026-04-14 10:43 39.75925 4.19749 2007 ft 125 kts
2026-04-14 10:43 39.76767 4.19920 1913 ft 120 kts
2026-04-14 10:44 39.77587 4.20087 1798 ft 120 kts
2026-04-14 10:44 39.78409 4.20256 1658 ft 119 kts
2026-04-14 10:44 39.79232 4.20426 1487 ft 120 kts
2026-04-14 10:44 39.80052 4.20590 1319 ft 120 kts
2026-04-14 10:45 39.80866 4.20769 1177 ft 119 kts
2026-04-14 10:45 39.81679 4.20927 994 ft 117 kts
2026-04-14 10:45 39.82490 4.21066 841 ft 120 kts
2026-04-14 10:45 39.83308 4.21252 680 ft 119 kts
2026-04-14 10:46 39.84151 4.21436 515 ft 124 kts
2026-04-14 10:46 39.84999 4.21601 350 ft 122 kts
2026-04-14 10:46 39.85770 4.21766 299 ft 85 kts
2026-04-14 10:46 39.86121 4.21834 298 ft 37 kts
2026-04-14 10:47 39.86361 4.21884 294 ft 34 kts
2026-04-14 10:47 39.86521 4.21919 298 ft 15 kts 11°
2026-04-14 10:47 39.86568 4.22025 301 ft 16 kts 97°
2026-04-14 10:47 39.86550 4.22176 297 ft 17 kts 99°
2026-04-14 10:48 39.86527 4.22297 295 ft 10 kts 127°
2026-04-14 10:48 39.86478 4.22335 298 ft 7 kts 126°
2026-04-14 10:48 39.86466 4.22390 298 ft 5 kts 101°
2026-04-14 10:48 39.86464 4.22403 298 ft 0 kts 99°